Location: Star Hoppers Observatory
(42.7905°N, 83.6127°W)
Time: 23:27:58
(UTC-04:00)

NOSS 3-1 (A) - Visible Passes

Search period start: 01 June 2015 00:00
Search period end: 11 June 2015 00:00
Orbit: 880 x 1332 km, 63.4° (Epoch: 29 May)

Date Brightness Start Highest point End Pass type
(mag) Time Alt. Az. Time Alt. Az. Time Alt. Az.
01 Jun 6.6 00:51:10 10° NNW 00:54:56 15° NNE 00:59:00 10° NE visible
01 Jun 5.6 02:41:54 10° NNW 02:48:23 33° NE 02:55:28 10° E visible
01 Jun 4.0 04:32:32 10° NW 04:40:06 76° WSW 04:48:15 10° SSE visible
01 Jun 6.4 22:10:48 10° WNW 22:15:21 19° NNW 22:20:07 10° NNE visible
02 Jun 6.6 00:06:04 10° NNW 00:09:21 14° N 00:12:48 10° NNE visible
02 Jun 6.0 01:57:20 10° NNW 02:03:08 25° NNE 02:09:28 10° E visible
02 Jun 4.2 03:47:49 10° NW 03:55:20 77° NE 04:03:31 10° SE visible
02 Jun 6.5 23:20:30 10° NNW 23:23:44 13° N 23:27:03 10° NNE visible
03 Jun 6.2 01:12:45 10° NNW 01:17:45 20° NNE 01:23:13 10° ENE visible
03 Jun 4.7 03:03:11 10° NNW 03:10:27 55° NE 03:18:23 10° SE visible
03 Jun 4.4 04:54:24 10° NW 05:01:27 40° WSW 05:08:52 10° S visible
03 Jun 6.4 22:34:32 10° NW 22:38:07 15° N 22:41:49 10° NNE visible
04 Jun 6.4 00:28:04 10° NNW 00:32:15 16° NNE 00:36:49 10° NE visible
04 Jun 5.2 02:18:37 10° NNW 02:25:26 40° NE 02:32:54 10° ESE visible
04 Jun 4.1 04:09:24 10° NW 04:16:52 60° WSW 04:24:51 10° SSE visible
04 Jun 6.3 21:48:26 10° WNW 21:52:36 17° NNW 21:56:56 10° NNE visible
04 Jun 6.4 23:43:09 10° NNW 23:46:41 14° N 23:50:28 10° NE visible
05 Jun 5.6 01:34:03 10° NNW 01:40:16 30° NE 01:47:05 10° E visible
05 Jun 4.0 03:24:36 10° NW 03:32:11 86° SW 03:40:22 10° SSE visible
05 Jun 5.2 05:17:10 10° WNW 05:22:36 20° WSW 05:27:51 10° SSW visible
05 Jun 6.4 22:57:53 10° NNW 23:01:04 13° N 23:04:26 10° NNE visible
06 Jun 6.0 00:49:29 10° NNW 00:54:58 23° NNE 01:00:59 10° E visible
06 Jun 4.3 02:39:56 10° NNW 02:47:23 68° NE 02:55:29 10° SE visible
06 Jun 4.7 04:31:30 10° NW 04:38:09 31° WSW 04:44:57 10° S visible
06 Jun 6.4 22:12:09 10° NW 22:15:28 14° N 22:18:53 10° NNE visible
07 Jun 6.2 00:04:52 10° NNW 00:09:33 18° NNE 00:14:40 10° ENE visible
07 Jun 4.8 01:55:19 10° NNW 02:02:27 48° NE 02:10:13 10° ESE visible
07 Jun 4.3 03:46:21 10° NW 03:53:36 47° WSW 04:01:17 10° S visible
07 Jun 6.3 23:20:06 10° NNW 23:24:01 15° NNE 23:28:15 10° NE visible
08 Jun 5.3 01:10:45 10° NNW 01:17:22 35° NE 01:24:36 10° ESE visible
08 Jun 4.0 03:01:26 10° NW 03:08:58 70° WSW 03:15:35 17° SSE visible
08 Jun 5.5 04:55:04 10° WNW 04:59:11 14° WSW 05:02:53 10° SW visible
08 Jun 6.3 22:35:04 10° NNW 22:38:25 14° N 22:41:59 10° NE visible
09 Jun 5.7 00:26:12 10° NNW 00:32:09 27° NNE 00:38:40 10° E visible
09 Jun 4.0 02:16:41 10° NW 02:24:15 83° NE 02:30:34 19° SE visible
09 Jun 5.0 04:08:48 10° WNW 04:14:47 24° WSW 04:17:53 19° SW visible
09 Jun 6.3 21:49:37 10° NNW 21:52:48 13° N 21:56:08 10° NNE visible
09 Jun 6.0 23:41:37 10° NNW 23:46:48 21° NNE 23:52:27 10° ENE visible
10 Jun 4.4 01:32:03 10° NNW 01:39:24 59° NE 01:45:58 16° SE visible
10 Jun 4.6 03:23:23 10° NW 03:30:18 37° WSW 03:33:19 28° SSW visible
10 Jun 6.2 22:56:57 10° NNW 23:01:20 17° NNE 23:06:05 10° ENE visible
